World > North America > United States > Ohio

Perrysburg, Ohio Regional Weather

Lat: 41.55N, Lon: 83.62W
Wx Zone: OHZ006Web Search
Perrysburg Weather Warning NWS WEATHER ALERT FOR THE PERRYSBURG, OH AREA - Issued: 801 AM EDT Wed May 12 2021 Perrysburg Weather Warning  

Helpful Tip: Type the letters wx in the search engine next time you need to find us.

Feedback


°F Click to change Perrysburg hourly weather to Imperial units.Click to change Perrysburg hourly weather to Metric units. °C
Perrysburg Weather Map
UTC Time: 5/12/2021, 13:43
Your Time:

Perrysburg, OH Regional Weather

Expires:202105121400;;999374
ASUS41 KCLE 121312
RWRCLE
OHIO REGIONAL WEATHER ROUNDUP
NATIONAL WEATHER SERVICE WILMINGTON, OH
900 AM EDT WED MAY 12 2021

NOTE: "FAIR" INDICATES FEW OR NO CLOUDS BELOW 12,000 FEET WITH NO
SIGNIFICANT WEATHER AND/OR OBSTRUCTIONS TO VISIBILITY.


OHZ001>008-015>018-024>027-034-035-043-044-121400-
   NORTHWEST OHIO
  
CITY           SKY/WX    TMP DP  RH WIND       PRES   REMARKS
DEFIANCE       FAIR      49  32  52 N7        30.43R                  
FINDLAY        FAIR      49  33  54 N6        30.41R                  
TOLEDO EXPRESS FAIR      49  31  49 N5        30.43R                  
TOLEDO EXEC    FAIR      50  31  48 N6        30.43R                  
LIMA           FAIR      47  35  63 NE8       30.41S                  
$$
 

SKY/WX - Weather  TMP - Temperature  DP - Dew Point  RH - Relative Humidity
WIND - Wind Direction/Speed PRES - Barometric Pressure VSB - Visibility
WCI - Wind Chill Index E13G22 Wind - East Wind 13 mph/Gusts of 22 mph